Regional Weather Roundup
Issued by NWS

Home | Current Version | Previous Version | Text Only | Print | Product List | Glossary On
Versions: 1 2 3 4 5 6 7 8 9 10 11 12 13 14 15 16 17 18 19 20 21 22 23 24 25 26 27 28 29 30 31 32 33 34 35 36 37 38 39 40 41 42 43 44 45 46 47 48 49 50
000
ASUS42 KFFC 260403
RWRGA
WEATHER ROUNDUP FOR GEORGIA
NATIONAL WEATHER SERVICE PEACHTREE CITY GA
1200 AM EDT WED JUL 26 2017

NOTE: "FAIR" INDICATES FEW OR NO CLOUDS BELOW 12,000 FEET WITH NO
SIGNIFICANT WEATHER AND/OR OBSTRUCTIONS TO VISIBILITY.

* = USE WITH CAUTION. THE STATIONS MARKED WITH AN ASTERISK MAY NOT
REPORT WEATHER SUCH AS PRECIPITATION, FOG, OR THUNDER AND ARE NOT
QUALITY CONTROLLED BY NWS.

THE REMARK "TC" DENOTES TEMPERATURE READING IN DEGREES CELSIUS.

GAZ001>058-260500-
NORTH GEORGIA

CITY           SKY/WX    TMP DP  RH WIND       PRES   REMARKS
ATLANTA        CLOUDY    78  72  81 S3        30.12F
ATHENS         PTCLDY    77  76  96 CALM      30.12S
CHAMBLEE       CLOUDY    77  72  84 CALM      30.12F
PEACHTREE CITY PTCLDY    74  74 100 CALM      30.12F
ROME           PTCLDY    77  75  93 CALM      30.09F
WEST ATLANTA   PTCLDY    78  73  84 W3        30.11F
GAINESVILLE    PTCLDY    76  70  82 CALM      30.16R
CARTERSVILLE   CLEAR     75  74  96 CALM      30.11F


CITY           SKY/WX    TMP DP  RH WIND       PRES   REMARKS
MARIETTA       PTCLDY    77  70  79 CALM      30.12S
CANTON*        CLEAR     77  75  94 CALM      30.15S
$$

GAZ059>098-102>109-260500-
CENTRAL GEORGIA

CITY           SKY/WX    TMP DP  RH WIND       PRES   REMARKS
AUGUSTA-BUSH   PTCLDY    75  73  93 CALM      30.09F
AUGUSTA-DANIEL PTCLDY    76  71  85 S3        30.11S
COLUMBUS       CLEAR     79  76  90 CALM      30.10S
MACON          CLOUDY    77  74  90 CALM      30.09F
ROBINS AFB     CLOUDY    76  73  93 CALM      30.09F


CITY           SKY/WX    TMP DP  RH WIND       PRES   REMARKS
LAGRANGE*      PTCLDY    77  76  98 CALM      30.11S FOG
SYLVANIA*      PTCLDY    74  74 100 CALM      30.10S
MILLEDGEVILLE* CLOUDY    73  70  88 CALM      30.10F
$$

GAZ099>101-110>166-260500-
SOUTH GEORGIA

CITY           SKY/WX    TMP DP  RH WIND       PRES   REMARKS
SAVANNAH       CLOUDY    77  73  87 SW3       30.08F
VALDOSTA       CLOUDY    72  72 100 CALM      30.09F
ALMA           CLOUDY    75  71  87 CALM      30.09R
ST SIMONS      CLOUDY    77  76  96 CALM      30.06F
FT STEWART     CLOUDY    75  73  94 NE5       30.05F
ALBANY         CLOUDY    77  76  96 CALM      30.11S
HUNTER AFB     CLOUDY    75  73  93 CALM      30.06F
MOODY AFB      CLOUDY    76  74  96 S3        30.08F
BRUNSWICK      CLOUDY    77  77 100 CALM      30.07F


CITY           SKY/WX    TMP DP  RH WIND       PRES   REMARKS
BAINBRIDGE*    CLOUDY    77  77 100 CALM      30.10S
MOULTRIE*      CLOUDY    75  73  94 CALM      30.10F FOG
VIDALIA*       PTCLDY    75  73  94 CALM      30.07F
WAYCROSS*      CLOUDY    76  76 100 CALM      30.08F
DOUGLAS*       CLOUDY    77  73  88 CALM      30.10F
$$



USA.gov is the U.S. government's official web portal to all federal, state and local government web resources and services.